Weather Service Report


127 
ASUS41 KPHI 270910
RWRPHI

REGIONAL WEATHER ROUNDUP
NATIONAL WEATHER SERVICE MOUNT HOLLY NJ
400 AM EST THU NOV 27 2014

NOTE:  "FAIR" INDICATES FEW OR NO CLOUDS BELOW 12,000 FEET WITH NO
SIGNIFICANT WEATHER AND/OR OBSTRUCTIONS TO VISIBILITY.

 * = STATION DOES NOT REPORT PRECIPITATION (E.G. RAIN, SNOW, ETC.) 
        OR FOG.

NJZ015>026-271000-
SOUTHERN NEW JERSEY
  
CITY           SKY/WX    TMP DP  RH WIND       PRES   REMARKS
POMONA         CLOUDY    36  33  89 W9        29.97R WCI  29          
RIO GRANDE*    CLOUDY    37  30  75 NW8       29.96F WCI  31          
MILLVILLE      CLOUDY    36  33  89 W9        29.98S WCI  29          
WRIGHTSTOWN    CLOUDY    35  32  90 W7        29.94R WCI  29          
MOUNT HOLLY    CLOUDY    36  31  82 W6        29.97R WCI  31          
TRENTON        CLOUDY    35  30  82 W6        29.94R WCI  30          

$$
NJZ001>014-271000-
NORTHERN NEW JERSEY
  
CITY           SKY/WX    TMP DP  RH WIND       PRES   REMARKS
SUSSEX         MOCLDY    32  29  88 CALM      29.91R                  
ANDOVER*         N/A     30  30 100 CALM      29.92R                  
MORRISTOWN       N/A     37  32  81 W3        29.93R                  
NEWARK         CLOUDY    36  33  89 W6        29.93R WCI  31          
TETERBORO      CLOUDY    36  30  79 N3        29.92R                  
CALDWELL       CLOUDY    33  30  88 CALM      29.93R                  
SOMERVILLE     CLOUDY    36  31  82 CALM      29.92R                  
ALLAIRE*       CLOUDY    36  28  75 W7        29.93R WCI  30          
TOMS RIVER*    CLOUDY    36  32  87 CALM      29.95S                  

$$
PAZ043-044-047-054-055-060>062-066>071-271000-
EASTERN PENNSYLVANIA
  
CITY           SKY/WX    TMP DP  RH WIND       PRES   REMARKS
PHILADELPHIA   CLOUDY    37  31  78 W9        29.99R WCI  30          
NORTH PHILA    CLOUDY    37  29  72 W8        29.98R WCI  31          
BLUE BELL      CLOUDY    36  32  87 CALM      29.96R                  
DOYLESTOWN     CLOUDY    33  30  88 W7        29.94R WCI  27          
QUAKERTOWN*    CLOUDY    32  30  93 W5        29.96R WCI  27          
POTTSTOWN      CLOUDY    33  30  88 W6        29.98R WCI  28          
LANCASTER      CLOUDY    33  29  85 W8        29.98S WCI  26          
COATESVILLE    MIX PCPN  32  32 100 NW12      29.96F WCI  23          
READING        MIX PCPN  35  29  78 W5        29.97R WCI  31          
ALLENTOWN      CLOUDY    34  27  75 W7        29.95R WCI  28          
MOUNT POCONO   MIX PCPN  27  24  89 NW13      29.85S WCI  16          
HAZLETON       FLURRIES  30  28  93 W6        29.93S WCI  24          
WILKES BARRE   CLOUDY    31  26  82 W10       29.94R WCI  22          

$$
DEZALL-MDZ008-012-015-019-020-271000-
DELAWARE AND EASTERN MARYLAND
  
CITY           SKY/WX    TMP DP  RH WIND       PRES   REMARKS
WILMINGTON     CLOUDY    36  31  82 NW12      29.99S WCI  28          
DOVER          PTCLDY    35  33  91 W6        29.97F WCI  30          
GEORGETOWN     PTCLDY    37  33  85 CALM      29.99F                  
EASTON         PTCLDY    37  37 100 NW6       30.03F WCI  32          
PATUXENT       MOCLDY    36  33  89 W5        30.03R WCI  32          
OCEAN CITY     PTCLDY    37  34  89 NW6       29.99F WCI  32          
WALLOPS ISLAND PTCLDY    37  34  89 NW7       30.01F WCI  32          
CAMBRIDGE      MOCLDY    37  34  87 W3        30.01R                  
SALISBURY      PTCLDY    39  33  79 W5        30.00F                  

$$
PAZ001-021-NYZ056-072-MDZ011-DCZ001-271000-
OTHER NEARBY LOCATIONS
  
CITY           SKY/WX    TMP DP  RH WIND       PRES   REMARKS
HARRISBURG     CLOUDY    34  29  82 NW8       29.98F WCI  27          
STATE COLLEGE  CLOUDY    29  27  94 CALM      29.97R                  
WILLIAMSPORT   CLOUDY    32  29  88 W5        29.99S WCI  27          
BINGHAMTON     CLOUDY    36  24  62 NW6       29.90S WCI  31          
NEW YORK CITY  CLOUDY    36  30  79 NW7       29.94R WCI  30          
BALTIMORE      MOCLDY    34  32  92 W6        30.00S WCI  29          
WASHINGTON DC  CLOUDY    39  31  72 CALM      30.03S                  

$$

Return to Home page


Western Regional Climate Center, wrcc@dri.edu